"datetime","temp","dp","rain_mm","uv","solar","mb","wind_mph","gust_mph","windchill","rh"
"2015-12-17 00:00:00",12.4,11.8,0.0,0.0,0,1019.5,5,8,"",96
"2015-12-17 00:01:00",12.4,11.8,0.0,0.0,0,1019.5,3,3,"",96
"2015-12-17 00:02:00",12.4,11.8,0.0,0.0,0,1019.4,2,6,"",96
"2015-12-17 00:03:00",12.4,11.8,0.0,0.0,0,1019.5,3,6,"",96
"2015-12-17 00:04:00",12.4,11.8,0.0,0.0,0,1019.4,3,5,"",96
"2015-12-17 00:05:00",12.4,11.8,0.0,0.0,0,1019.4,2,9,"",96
"2015-12-17 00:06:00",12.4,11.8,0.0,0.0,0,1019.4,5,12,"",96
"2015-12-17 00:07:00",12.4,11.8,0.0,0.0,0,1019.3,5,10,"",96
"2015-12-17 00:08:00",12.4,11.8,0.0,0.0,0,1019.4,3,10,"",96
"2015-12-17 00:09:00",12.4,11.8,0.0,0.0,0,1019.3,6,9,"",96
"2015-12-17 00:10:00",12.3,11.7,0.0,0.0,0,1019.3,5,9,"",96
"2015-12-17 00:11:00",12.3,11.7,0.0,0.0,0,1019.3,3,6,"",96
"2015-12-17 00:12:00",12.3,11.7,0.0,0.0,0,1019.3,3,9,"",96
"2015-12-17 00:13:00",12.3,11.7,0.0,0.0,0,1019.3,3,6,"",96
"2015-12-17 00:14:00",12.3,11.7,0.0,0.0,0,1019.2,5,10,"",96
"2015-12-17 00:15:00",12.3,11.7,0.0,0.0,0,1019.3,5,6,"",96
"2015-12-17 00:16:00",12.3,11.7,0.0,0.0,0,1019.2,2,5,"",96
"2015-12-17 00:17:00",12.3,11.7,0.0,0.0,0,1019.2,2,3,"",96
"2015-12-17 00:18:00",12.3,11.7,0.0,0.0,0,1019.2,2,8,"",96
"2015-12-17 00:19:00",12.3,11.7,0.0,0.0,0,1019.1,5,9,"",96
"2015-12-17 00:20:00",12.3,11.7,0.0,0.0,0,1019.2,2,2,"",96
"2015-12-17 00:21:00",12.3,11.7,0.0,0.0,0,1019.1,2,6,"",96
"2015-12-17 00:22:00",12.3,11.7,0.0,0.0,0,1019.2,2,5,"",96
"2015-12-17 00:23:00",12.3,11.7,0.0,0.0,0,1019.2,2,3,"",96
"2015-12-17 00:24:00",12.3,11.7,0.0,0.0,0,1019.2,2,5,"",96
"2015-12-17 00:25:00",12.3,11.7,0.0,0.0,0,1019.2,3,12,"",96
"2015-12-17 00:26:00",12.3,11.5,0.0,0.0,0,1019.1,5,9,"",95
"2015-12-17 00:27:00",12.2,11.5,0.0,0.0,0,1019.2,3,3,"",95
"2015-12-17 00:28:00",12.2,11.4,0.0,0.0,0,1019.2,2,7,"",95
"2015-12-17 00:29:00",12.2,11.4,0.0,0.0,0,1019.1,2,7,"",95
"2015-12-17 00:30:00",12.2,11.4,0.0,0.0,0,1019.2,3,6,"",95
"2015-12-17 00:31:00",12.2,11.4,0.0,0.0,0,1019.2,3,9,"",95
"2015-12-17 00:32:00",12.2,11.4,0.0,0.0,0,1019.2,5,9,"",95
"2015-12-17 00:33:00",12.2,11.4,0.0,0.0,0,1019.1,2,6,"",95
"2015-12-17 00:34:00",12.2,11.4,0.0,0.0,0,1019.2,3,6,"",95
"2015-12-17 00:35:00",12.2,11.4,0.0,0.0,0,1019.2,2,5,"",95
"2015-12-17 00:36:00",12.2,11.4,0.0,0.0,0,1019.1,2,3,"",95
"2015-12-17 00:37:00",12.2,11.4,0.0,0.0,0,1019.1,3,12,"",95
"2015-12-17 00:38:00",12.2,11.4,0.0,0.0,0,1019.2,5,7,"",95
"2015-12-17 00:39:00",12.2,11.4,0.0,0.0,0,1019.1,3,9,"",95
"2015-12-17 00:40:00",12.2,11.4,0.0,0.0,0,1019.0,3,3,"",95
"2015-12-17 00:41:00",12.2,11.4,0.0,0.0,0,1019.0,3,7,"",95
"2015-12-17 00:42:00",12.2,11.4,0.0,0.0,0,1019.1,3,9,"",95
"2015-12-17 00:43:00",12.2,11.4,0.0,0.0,0,1019.0,3,5,"",95
"2015-12-17 00:44:00",12.2,11.4,0.0,0.0,0,1019.0,3,6,"",95
"2015-12-17 00:45:00",12.2,11.4,0.0,0.0,0,1019.0,5,12,"",95
"2015-12-17 00:46:00",12.2,11.4,0.0,0.0,0,1019.0,5,6,"",95
"2015-12-17 00:47:00",12.2,11.4,0.0,0.0,0,1019.0,3,8,"",95
"2015-12-17 00:48:00",12.2,11.4,0.0,0.0,0,1019.0,5,10,"",95
"2015-12-17 00:49:00",12.2,11.4,0.0,0.0,0,1019.0,5,8,"",95
"2015-12-17 00:50:00",12.2,11.4,0.0,0.0,0,1019.0,2,2,"",95
"2015-12-17 00:51:00",12.1,11.4,0.0,0.0,0,1019.0,2,3,"",95
"2015-12-17 00:52:00",12.2,11.4,0.0,0.0,0,1019.0,2,9,"",95
"2015-12-17 00:53:00",12.1,11.3,0.0,0.0,0,1019.0,6,9,"",95
"2015-12-17 00:54:00",12.1,11.4,0.0,0.0,0,1018.9,3,9,"",95
"2015-12-17 00:55:00",12.1,11.3,0.0,0.0,0,1019.0,2,5,"",95
"2015-12-17 00:56:00",12.1,11.3,0.0,0.0,0,1018.9,2,5,"",95
"2015-12-17 00:57:00",12.1,11.3,0.0,0.0,0,1019.0,5,12,"",95
"2015-12-17 00:58:00",12.1,11.3,0.0,0.0,0,1018.9,3,3,"",95
"2015-12-17 00:59:00",12.1,11.3,0.0,0.0,0,1019.0,2,3,"",95
"2015-12-17 01:00:00",12.1,11.3,0.0,0.0,0,1018.9,2,2,"",95
"2015-12-17 01:01:00",12.1,11.3,0.0,0.0,0,1018.9,2,5,"",95
"2015-12-17 01:02:00",12.1,11.3,0.0,0.0,0,1018.9,2,2,"",95
"2015-12-17 01:03:00",12.1,11.3,0.0,0.0,0,1018.9,3,10,"",95
"2015-12-17 01:04:00",12.1,11.3,0.0,0.0,0,1018.9,3,3,"",95
"2015-12-17 01:05:00",12.1,11.3,0.0,0.0,0,1018.9,3,8,"",95
"2015-12-17 01:06:00",12.1,11.3,0.0,0.0,0,1018.9,3,3,"",95
"2015-12-17 01:07:00",12.1,11.3,0.0,0.0,0,1018.9,3,5,"",95
"2015-12-17 01:08:00",12.1,11.3,0.0,0.0,0,1018.9,3,6,"",95
"2015-12-17 01:09:00",12.1,11.3,0.0,0.0,0,1018.8,3,9,"",95
"2015-12-17 01:10:00",12.1,11.3,0.0,0.0,0,1018.8,5,10,"",95
"2015-12-17 01:11:00",12.1,11.3,0.0,0.0,0,1018.8,3,7,"",95
"2015-12-17 01:12:00",12.1,11.3,0.0,0.0,0,1018.8,2,2,"",95
"2015-12-17 01:13:00",12.1,11.3,0.0,0.0,0,1018.8,2,3,"",95
"2015-12-17 01:14:00",12.1,11.3,0.0,0.0,0,1018.8,2,6,"",95
"2015-12-17 01:15:00",12.1,11.3,0.0,0.0,0,1018.7,3,6,"",95
"2015-12-17 01:16:00",12.1,11.3,0.0,0.0,0,1018.8,2,3,"",95
"2015-12-17 01:17:00",12.1,11.3,0.0,0.0,0,1018.8,2,5,"",95
"2015-12-17 01:18:00",12.1,11.3,0.0,0.0,0,1018.8,3,7,"",95
"2015-12-17 01:19:00",12.0,11.3,0.0,0.0,0,1018.8,5,8,"",95
"2015-12-17 01:20:00",12.0,11.3,0.0,0.0,0,1018.8,3,7,"",95
"2015-12-17 01:21:00",12.0,11.3,0.0,0.0,0,1018.8,3,8,"",95
"2015-12-17 01:22:00",12.0,11.2,0.0,0.0,0,1018.7,5,6,"",95
"2015-12-17 01:23:00",12.0,11.2,0.0,0.0,0,1018.8,3,5,"",95
"2015-12-17 01:24:00",12.0,11.2,0.0,0.0,0,1018.8,3,10,"",95
"2015-12-17 01:25:00",12.0,11.2,0.0,0.0,0,1018.8,5,7,"",95
"2015-12-17 01:26:00",12.0,11.2,0.0,0.0,0,1018.7,3,6,"",95
"2015-12-17 01:27:00",12.0,11.2,0.0,0.0,0,1018.7,3,7,"",95
"2015-12-17 01:28:00",11.9,11.2,0.0,0.0,0,1018.7,2,5,"",95
"2015-12-17 01:29:00",11.9,11.2,0.0,0.0,0,1018.6,2,5,"",95
"2015-12-17 01:30:00",11.9,11.2,0.2,0.0,0,1018.7,5,10,"",95
"2015-12-17 01:31:00",11.9,11.0,0.2,0.0,0,1018.7,3,10,"",94
"2015-12-17 01:32:00",11.9,11.0,0.2,0.0,0,1018.7,5,6,"",94
"2015-12-17 01:33:00",11.9,11.0,0.2,0.0,0,1018.7,3,5,"",94
"2015-12-17 01:34:00",11.9,11.0,0.2,0.0,0,1018.7,3,8,"",94
"2015-12-17 01:35:00",11.9,11.0,0.2,0.0,0,1018.6,5,8,"",94
"2015-12-17 01:36:00",11.9,11.0,0.2,0.0,0,1018.6,5,8,"",94
"2015-12-17 01:37:00",11.9,11.0,0.2,0.0,0,1018.6,2,5,"",94
"2015-12-17 01:38:00",11.9,11.0,0.2,0.0,0,1018.6,2,3,"",94
"2015-12-17 01:39:00",11.9,11.0,0.2,0.0,0,1018.6,2,7,"",94
"2015-12-17 01:40:00",11.9,11.0,0.2,0.0,0,1018.6,3,5,"",94
"2015-12-17 01:41:00",11.9,10.9,0.2,0.0,0,1018.6,2,6,"",94
"2015-12-17 01:42:00",11.8,10.9,0.2,0.0,0,1018.6,3,6,"",94
"2015-12-17 01:43:00",11.8,10.9,0.2,0.0,0,1018.5,3,5,"",94
"2015-12-17 01:44:00",11.8,10.9,0.2,0.0,0,1018.5,2,5,"",94
"2015-12-17 01:45:00",11.8,10.9,0.2,0.0,0,1018.5,3,3,"",94
"2015-12-17 01:46:00",11.8,10.9,0.2,0.0,0,1018.5,2,5,"",94
"2015-12-17 01:47:00",11.8,10.8,0.2,0.0,0,1018.6,3,9,"",94
"2015-12-17 01:48:00",11.8,10.8,0.2,0.0,0,1018.5,3,5,"",94
"2015-12-17 01:49:00",11.8,10.8,0.2,0.0,0,1018.5,2,3,"",94
"2015-12-17 01:50:00",11.8,10.8,0.2,0.0,0,1018.6,3,7,"",94
"2015-12-17 01:51:00",11.8,10.8,0.2,0.0,0,1018.5,2,3,"",94
"2015-12-17 01:52:00",11.8,10.8,0.2,0.0,0,1018.6,3,6,"",94
"2015-12-17 01:53:00",11.8,11.0,0.2,0.0,0,1018.6,3,6,"",95
"2015-12-17 01:54:00",11.7,10.8,0.2,0.0,0,1018.6,1,3,"",94
"2015-12-17 01:55:00",11.7,10.9,0.2,0.0,0,1018.6,2,5,"",95
"2015-12-17 01:56:00",11.7,10.9,0.2,0.0,0,1018.5,2,3,"",95
"2015-12-17 01:57:00",11.7,10.8,0.2,0.0,0,1018.6,3,10,"",94
"2015-12-17 01:58:00",11.7,10.8,0.2,0.0,0,1018.6,7,12,"",94
"2015-12-17 01:59:00",11.7,10.8,0.2,0.0,0,1018.6,6,7,"",94
"2015-12-17 02:00:00",11.7,10.9,0.2,0.0,0,1018.6,5,7,"",95
"2015-12-17 02:01:00",11.7,10.9,0.2,0.0,0,1018.5,2,5,"",95
"2015-12-17 02:02:00",11.7,10.7,0.2,0.0,0,1018.6,3,5,"",94
"2015-12-17 02:03:00",11.7,10.7,0.2,0.0,0,1018.6,3,3,"",94
"2015-12-17 02:04:00",11.7,10.7,0.2,0.0,0,1018.6,2,3,"",94
"2015-12-17 02:05:00",11.7,10.7,0.2,0.0,0,1018.6,2,3,"",94
"2015-12-17 02:06:00",11.6,10.7,0.2,0.0,0,1018.6,2,3,"",94
"2015-12-17 02:07:00",11.6,10.7,0.2,0.0,0,1018.6,2,7,"",94
"2015-12-17 02:08:00",11.6,10.7,0.2,0.0,0,1018.5,3,5,"",94
"2015-12-17 02:09:00",11.6,10.7,0.2,0.0,0,1018.5,2,3,"",94
"2015-12-17 02:10:00",11.6,10.7,0.2,0.0,0,1018.5,2,9,"",94
"2015-12-17 02:11:00",11.6,10.7,0.2,0.0,0,1018.5,5,9,"",94
"2015-12-17 02:12:00",11.6,10.7,0.2,0.0,0,1018.5,3,6,"",94
"2015-12-17 02:13:00",11.6,10.6,0.2,0.0,0,1018.5,3,5,"",94
"2015-12-17 02:14:00",11.6,10.6,0.2,0.0,0,1018.5,3,5,"",94
"2015-12-17 02:15:00",11.6,10.6,0.2,0.0,0,1018.5,5,8,"",94
"2015-12-17 02:16:00",11.6,10.6,0.2,0.0,0,1018.5,2,3,"",94
"2015-12-17 02:17:00",11.6,10.6,0.2,0.0,0,1018.5,2,7,"",94
"2015-12-17 02:18:00",11.6,10.6,0.2,0.0,0,1018.5,5,9,"",94
"2015-12-17 02:19:00",11.5,10.6,0.2,0.0,0,1018.5,5,10,"",94
"2015-12-17 02:20:00",11.5,10.8,0.2,0.0,0,1018.5,3,3,"",95
"2015-12-17 02:21:00",11.5,10.7,0.2,0.0,0,1018.5,2,3,"",95
"2015-12-17 02:22:00",11.5,10.7,0.2,0.0,0,1018.4,3,6,"",95
"2015-12-17 02:23:00",11.5,10.7,0.2,0.0,0,1018.4,3,7,"",95
"2015-12-17 02:24:00",11.5,10.7,0.2,0.0,0,1018.4,3,3,"",95
"2015-12-17 02:25:00",11.5,10.7,0.2,0.0,0,1018.4,2,5,"",95
"2015-12-17 02:26:00",11.5,10.7,0.2,0.0,0,1018.4,2,7,"",95
"2015-12-17 02:27:00",11.5,10.7,0.2,0.0,0,1018.4,3,5,"",95
"2015-12-17 02:28:00",11.5,10.7,0.2,0.0,0,1018.4,2,3,"",95
"2015-12-17 02:29:00",11.5,10.7,0.2,0.0,0,1018.4,2,3,"",95
"2015-12-17 02:30:00",11.5,10.7,0.2,0.0,0,1018.4,2,3,"",95
"2015-12-17 02:31:00",11.5,10.7,0.2,0.0,0,1018.4,2,2,"",95
"2015-12-17 02:32:00",11.5,10.7,0.2,0.0,0,1018.4,2,3,"",95
"2015-12-17 02:33:00",11.5,10.7,0.2,0.0,0,1018.4,2,3,"",95
"2015-12-17 02:34:00",11.5,10.7,0.2,0.0,0,1018.3,2,3,"",95
"2015-12-17 02:35:00",11.4,10.7,0.2,0.0,0,1018.4,2,3,"",95
"2015-12-17 02:36:00",11.4,10.7,0.2,0.0,0,1018.4,2,5,"",95
"2015-12-17 02:37:00",11.4,10.7,0.2,0.0,0,1018.4,2,10,"",95
"2015-12-17 02:38:00",11.4,10.7,0.2,0.0,0,1018.3,5,8,"",95
"2015-12-17 02:39:00",11.4,10.7,0.2,0.0,0,1018.3,2,2,"",95
"2015-12-17 02:40:00",11.4,10.7,0.2,0.0,0,1018.4,2,6,"",95
"2015-12-17 02:41:00",11.4,10.7,0.2,0.0,0,1018.3,3,5,"",95
"2015-12-17 02:42:00",11.4,10.7,0.2,0.0,0,1018.3,2,2,"",95
"2015-12-17 02:43:00",11.4,10.7,0.2,0.0,0,1018.3,2,8,"",95
"2015-12-17 02:44:00",11.4,10.7,0.2,0.0,0,1018.3,3,6,"",95
"2015-12-17 02:45:00",11.4,10.7,0.2,0.0,0,1018.3,2,3,"",95
"2015-12-17 02:46:00",11.4,10.7,0.2,0.0,0,1018.3,3,7,"",95
"2015-12-17 02:47:00",11.4,10.7,0.2,0.0,0,1018.3,2,3,"",95
"2015-12-17 02:48:00",11.4,10.7,0.2,0.0,0,1018.3,2,6,"",95
"2015-12-17 02:49:00",11.4,10.7,0.2,0.0,0,1018.3,3,8,"",95
"2015-12-17 02:50:00",11.4,10.7,0.2,0.0,0,1018.3,3,3,"",95
"2015-12-17 02:51:00",11.4,10.7,0.2,0.0,0,1018.2,2,3,"",95
"2015-12-17 02:52:00",11.4,10.7,0.2,0.0,0,1018.3,3,8,"",95
"2015-12-17 02:53:00",11.4,10.7,0.2,0.0,0,1018.2,3,3,"",95
"2015-12-17 02:54:00",11.4,10.6,0.2,0.0,0,1018.2,1,2,"",95
"2015-12-17 02:55:00",11.4,10.6,0.2,0.0,0,1018.2,2,3,"",95
"2015-12-17 02:56:00",11.4,10.6,0.2,0.0,0,1018.2,2,3,"",95
"2015-12-17 02:57:00",11.4,10.7,0.2,0.0,0,1018.2,2,3,"",95
"2015-12-17 02:58:00",11.4,10.6,0.2,0.0,0,1018.2,2,2,"",95
"2015-12-17 02:59:00",11.3,10.6,0.2,0.0,0,1018.2,1,3,"",95
"2015-12-17 03:00:00",11.3,10.6,0.2,0.0,0,1018.2,2,3,"",95
"2015-12-17 03:01:00",11.3,10.5,0.2,0.0,0,1018.2,2,3,"",95
"2015-12-17 03:02:00",11.3,10.5,0.2,0.0,0,1018.2,2,3,"",95
"2015-12-17 03:03:00",11.2,10.5,0.2,0.0,0,1018.1,2,2,"",95
"2015-12-17 03:04:00",11.2,10.5,0.2,0.0,0,1018.1,1,2,"",95
"2015-12-17 03:05:00",11.2,10.5,0.2,0.0,0,1018.1,1,3,"",95
"2015-12-17 03:06:00",11.2,10.5,0.2,0.0,0,1018.1,1,2,"",95
"2015-12-17 03:07:00",11.2,10.5,0.2,0.0,0,1018.1,1,3,"",95
"2015-12-17 03:08:00",11.2,10.5,0.2,0.0,0,1018.0,2,3,"",95
"2015-12-17 03:09:00",11.2,10.5,0.2,0.0,0,1018.0,3,6,"",95
"2015-12-17 03:10:00",11.3,10.5,0.2,0.0,0,1018.0,3,3,"",95
"2015-12-17 03:11:00",11.3,10.6,0.2,0.0,0,1018.1,1,5,"",95
"2015-12-17 03:12:00",11.3,10.5,0.2,0.0,0,1018.0,2,3,"",95
"2015-12-17 03:13:00",11.3,10.6,0.2,0.0,0,1018.1,1,3,"",95
"2015-12-17 03:14:00",11.3,10.6,0.2,0.0,0,1018.0,2,6,"",95
"2015-12-17 03:15:00",11.3,10.6,0.2,0.0,0,1018.0,1,2,"",95
"2015-12-17 03:16:00",11.3,10.6,0.2,0.0,0,1018.0,1,3,"",95
"2015-12-17 03:17:00",11.3,10.6,0.2,0.0,0,1018.0,2,2,"",95
"2015-12-17 03:18:00",11.3,10.6,0.2,0.0,0,1018.0,1,3,"",95
"2015-12-17 03:19:00",11.3,10.6,0.2,0.0,0,1018.0,1,2,"",95
"2015-12-17 03:20:00",11.3,10.5,0.2,0.0,0,1018.0,1,2,"",95
"2015-12-17 03:21:00",11.3,10.5,0.2,0.0,0,1017.9,1,2,"",95
"2015-12-17 03:22:00",11.3,10.5,0.2,0.0,0,1017.9,1,2,"",95
"2015-12-17 03:23:00",11.3,10.5,0.2,0.0,0,1017.9,2,3,"",95
"2015-12-17 03:24:00",11.3,10.5,0.2,0.0,0,1017.9,2,3,"",95
"2015-12-17 03:25:00",11.3,10.5,0.2,0.0,0,1017.9,1,3,"",95
"2015-12-17 03:26:00",11.3,10.5,0.2,0.0,0,1017.9,2,3,"",95
"2015-12-17 03:27:00",11.3,10.5,0.2,0.0,0,1017.9,1,2,"",95
"2015-12-17 03:28:00",11.3,10.5,0.2,0.0,0,1017.8,1,3,"",95
"2015-12-17 03:29:00",11.2,10.5,0.2,0.0,0,1017.8,2,3,"",95
"2015-12-17 03:30:00",11.2,10.5,0.2,0.0,0,1017.8,1,7,"",95
"2015-12-17 03:31:00",11.2,10.5,0.2,0.0,0,1017.7,2,7,"",95
"2015-12-17 03:32:00",11.2,10.5,0.2,0.0,0,1017.8,2,3,"",95
"2015-12-17 03:33:00",11.2,10.5,0.2,0.0,0,1017.8,1,2,"",95
"2015-12-17 03:34:00",11.2,10.3,0.2,0.0,0,1017.8,1,2,"",94
"2015-12-17 03:35:00",11.2,10.4,0.2,0.0,0,1017.7,1,3,"",95
"2015-12-17 03:36:00",11.2,10.4,0.2,0.0,0,1017.7,2,3,"",95
"2015-12-17 03:37:00",11.2,10.4,0.2,0.0,0,1017.7,2,3,"",95
"2015-12-17 03:38:00",11.2,10.4,0.2,0.0,0,1017.8,2,3,"",95
"2015-12-17 03:39:00",11.2,10.4,0.2,0.0,0,1017.7,2,3,"",95
"2015-12-17 03:40:00",11.2,10.4,0.2,0.0,0,1017.7,2,5,"",95
"2015-12-17 03:41:00",11.2,10.4,0.2,0.0,0,1017.7,3,5,"",95
"2015-12-17 03:42:00",11.2,10.4,0.2,0.0,0,1017.7,1,2,"",95
"2015-12-17 03:43:00",11.1,10.4,0.2,0.0,0,1017.7,1,1,"",95
"2015-12-17 03:44:00",11.1,10.3,0.2,0.0,0,1017.7,1,3,"",95
"2015-12-17 03:45:00",11.1,10.3,0.2,0.0,0,1017.7,2,3,"",95
"2015-12-17 03:46:00",11.1,10.3,0.2,0.0,0,1017.6,1,2,"",95
"2015-12-17 03:47:00",11.1,10.3,0.2,0.0,0,1017.7,1,3,"",95
"2015-12-17 03:48:00",11.1,10.3,0.2,0.0,0,1017.6,1,1,"",95
"2015-12-17 03:49:00",11.1,10.3,0.2,0.0,0,1017.6,1,6,"",95
"2015-12-17 03:50:00",11.1,10.3,0.2,0.0,0,1017.6,2,2,"",95
"2015-12-17 03:51:00",11.1,10.3,0.2,0.0,0,1017.6,1,1,"",95
"2015-12-17 03:52:00",11.1,10.3,0.2,0.0,0,1017.6,0,1,"",95
"2015-12-17 03:53:00",11.1,10.3,0.2,0.0,0,1017.6,1,6,"",95
"2015-12-17 03:54:00",11.1,10.3,0.2,0.0,0,1017.5,3,6,"",95
"2015-12-17 03:55:00",11.1,10.3,0.2,0.0,0,1017.5,2,3,"",95
"2015-12-17 03:56:00",11.1,10.3,0.2,0.0,0,1017.5,2,3,"",95
"2015-12-17 03:57:00",11.1,10.3,0.2,0.0,0,1017.5,2,3,"",95
"2015-12-17 03:58:00",11.0,10.3,0.2,0.0,0,1017.4,2,2,"",95
"2015-12-17 03:59:00",11.0,10.2,0.2,0.0,0,1017.4,1,3,"",95
"2015-12-17 04:00:00",11.0,10.2,0.2,0.0,0,1017.4,2,5,"",95
"2015-12-17 04:01:00",11.0,10.2,0.2,0.0,0,1017.4,1,1,"",95
"2015-12-17 04:02:00",11.0,10.2,0.2,0.0,0,1017.3,1,2,"",95
"2015-12-17 04:03:00",11.0,10.2,0.2,0.0,0,1017.4,1,2,"",95
"2015-12-17 04:04:00",11.0,10.2,0.2,0.0,0,1017.4,1,3,"",95
"2015-12-17 04:05:00",10.9,10.2,0.2,0.0,0,1017.4,2,3,"",95
"2015-12-17 04:06:00",10.9,10.2,0.2,0.0,0,1017.4,1,2,"",95
"2015-12-17 04:07:00",10.9,10.2,0.2,0.0,0,1017.4,1,1,"",95
"2015-12-17 04:08:00",10.9,10.2,0.2,0.0,0,1017.4,0,2,"",95
"2015-12-17 04:09:00",10.9,10.2,0.2,0.0,0,1017.4,1,2,"",95
"2015-12-17 04:10:00",10.9,10.2,0.2,0.0,0,1017.4,1,5,"",95
"2015-12-17 04:11:00",10.9,10.1,0.2,0.0,0,1017.4,2,2,"",95
"2015-12-17 04:12:00",10.9,10.1,0.2,0.0,0,1017.4,2,6,"",95
"2015-12-17 04:13:00",10.9,10.1,0.2,0.0,0,1017.4,3,7,"",95
"2015-12-17 04:14:00",10.9,10.1,0.2,0.0,0,1017.4,3,6,"",95
"2015-12-17 04:15:00",10.9,10.1,0.2,0.0,0,1017.4,3,7,"",95
"2015-12-17 04:16:00",10.9,10.1,0.2,0.0,0,1017.3,3,3,"",95
"2015-12-17 04:17:00",10.8,10.1,0.2,0.0,0,1017.3,3,5,"",95
"2015-12-17 04:18:00",10.8,10.1,0.2,0.0,0,1017.4,2,3,"",95
"2015-12-17 04:19:00",10.8,10.1,0.2,0.0,0,1017.4,2,3,"",95
"2015-12-17 04:20:00",10.8,10.1,0.2,0.0,0,1017.3,1,2,"",95
"2015-12-17 04:21:00",10.8,10.1,0.2,0.0,0,1017.3,2,3,"",95
"2015-12-17 04:22:00",10.8,10.1,0.2,0.0,0,1017.3,2,3,"",95
"2015-12-17 04:23:00",10.8,10.1,0.2,0.0,0,1017.3,2,3,"",95
"2015-12-17 04:24:00",10.8,10.0,0.2,0.0,0,1017.3,2,3,"",95
"2015-12-17 04:25:00",10.8,10.0,0.2,0.0,0,1017.3,2,3,"",95
"2015-12-17 04:26:00",10.8,10.0,0.2,0.0,0,1017.3,2,3,"",95
"2015-12-17 04:27:00",10.8,10.0,0.2,0.0,0,1017.3,1,2,"",95
"2015-12-17 04:28:00",10.8,10.0,0.2,0.0,0,1017.3,1,3,"",95
"2015-12-17 04:29:00",10.8,10.0,0.2,0.0,0,1017.2,2,6,"",95
"2015-12-17 04:30:00",10.8,10.0,0.2,0.0,0,1017.2,3,3,"",95
"2015-12-17 04:31:00",10.8,10.0,0.2,0.0,0,1017.2,2,3,"",95
"2015-12-17 04:32:00",10.8,10.0,0.2,0.0,0,1017.2,2,3,"",95
"2015-12-17 04:33:00",10.8,10.0,0.2,0.0,0,1017.2,2,3,"",95
"2015-12-17 04:34:00",10.8,10.0,0.2,0.0,0,1017.2,2,3,"",95
"2015-12-17 04:35:00",10.8,10.0,0.2,0.0,0,1017.2,2,3,"",95
"2015-12-17 04:36:00",10.8,10.0,0.2,0.0,0,1017.2,1,5,"",95
"2015-12-17 04:37:00",10.8,10.0,0.2,0.0,0,1017.2,3,7,"",95
"2015-12-17 04:38:00",10.8,10.0,0.2,0.0,0,1017.2,3,3,"",95
"2015-12-17 04:39:00",10.8,10.0,0.2,0.0,0,1017.2,2,3,"",95
"2015-12-17 04:40:00",10.8,10.0,0.2,0.0,0,1017.2,2,3,"",95
"2015-12-17 04:41:00",10.8,10.0,0.2,0.0,0,1017.2,2,3,"",95
"2015-12-17 04:42:00",10.8,10.0,0.2,0.0,0,1017.2,2,3,"",95
"2015-12-17 04:43:00",10.8,10.0,0.2,0.0,0,1017.2,2,3,"",95
"2015-12-17 04:44:00",10.8,10.0,0.2,0.0,0,1017.1,2,5,"",95
"2015-12-17 04:45:00",10.8,10.0,0.2,0.0,0,1017.1,3,3,"",95
"2015-12-17 04:46:00",10.8,10.0,0.2,0.0,0,1017.1,2,3,"",95
"2015-12-17 04:47:00",10.8,10.0,0.2,0.0,0,1017.1,2,5,"",95
"2015-12-17 04:48:00",10.8,10.0,0.2,0.0,0,1017.1,3,9,"",95
"2015-12-17 04:49:00",10.8,10.0,0.2,0.0,0,1017.1,5,5,"",95
"2015-12-17 04:50:00",10.8,10.0,0.2,0.0,0,1017.0,2,5,"",95
"2015-12-17 04:51:00",10.8,10.0,0.2,0.0,0,1017.1,2,5,"",95
"2015-12-17 04:52:00",10.8,10.0,0.2,0.0,0,1017.0,2,5,"",95
"2015-12-17 04:53:00",10.8,10.0,0.2,0.0,0,1017.1,2,3,"",95
"2015-12-17 04:54:00",10.8,10.0,0.2,0.0,0,1017.0,2,3,"",95
"2015-12-17 04:55:00",10.8,10.0,0.2,0.0,0,1017.0,2,3,"",95
"2015-12-17 04:56:00",10.8,10.0,0.2,0.0,0,1017.1,2,5,"",95
"2015-12-17 04:57:00",10.8,10.0,0.2,0.0,0,1017.0,2,5,"",95
"2015-12-17 04:58:00",10.8,10.0,0.2,0.0,0,1017.0,2,3,"",95
"2015-12-17 04:59:00",10.8,10.0,0.2,0.0,0,1017.0,2,6,"",95
"2015-12-17 05:00:00",10.8,10.0,0.2,0.0,0,1017.0,5,7,"",95
"2015-12-17 05:01:00",10.8,10.0,0.2,0.0,0,1017.0,5,6,"",95
"2015-12-17 05:02:00",10.8,10.0,0.2,0.0,0,1017.0,3,5,"",95
"2015-12-17 05:03:00",10.8,10.0,0.2,0.0,0,1016.9,3,5,"",95
"2015-12-17 05:04:00",10.8,10.0,0.2,0.0,0,1017.0,3,3,"",95
"2015-12-17 05:05:00",10.8,10.0,0.2,0.0,0,1016.9,2,5,"",95
"2015-12-17 05:06:00",10.8,10.0,0.2,0.0,0,1017.0,2,5,"",95
"2015-12-17 05:07:00",10.8,10.0,0.2,0.0,0,1016.9,2,5,"",95
"2015-12-17 05:08:00",10.8,10.0,0.2,0.0,0,1016.9,3,7,"",95
"2015-12-17 05:09:00",10.8,10.0,0.2,0.0,0,1016.9,3,3,"",95
"2015-12-17 05:10:00",10.8,10.0,0.2,0.0,0,1016.9,5,10,"",95
"2015-12-17 05:11:00",10.8,10.1,0.2,0.0,0,1016.9,5,5,"",95
"2015-12-17 05:12:00",10.8,10.1,0.2,0.0,0,1016.9,2,3,"",95
"2015-12-17 05:13:00",10.8,10.1,0.2,0.0,0,1016.9,2,7,"",95
"2015-12-17 05:14:00",10.8,10.1,0.2,0.0,0,1017.0,3,9,"",95
"2015-12-17 05:15:00",10.8,10.1,0.2,0.0,0,1017.0,3,8,"",95
"2015-12-17 05:16:00",10.8,10.1,0.2,0.0,0,1017.0,2,5,"",95
"2015-12-17 05:17:00",10.9,10.1,0.2,0.0,0,1017.0,2,3,"",95
"2015-12-17 05:18:00",10.9,10.0,0.2,0.0,0,1016.9,1,2,"",94
"2015-12-17 05:19:00",10.9,10.0,0.2,0.0,0,1016.9,1,3,"",94
"2015-12-17 05:20:00",10.9,10.0,0.2,0.0,0,1017.0,3,6,"",94
"2015-12-17 05:21:00",10.9,10.0,0.2,0.0,0,1017.0,2,3,"",94
"2015-12-17 05:22:00",10.9,10.0,0.2,0.0,0,1016.9,2,6,"",94
"2015-12-17 05:23:00",10.9,10.0,0.2,0.0,0,1017.0,5,8,"",94
"2015-12-17 05:24:00",10.9,10.0,0.2,0.0,0,1016.9,3,3,"",94
"2015-12-17 05:25:00",10.9,10.0,0.2,0.0,0,1016.9,2,3,"",94
"2015-12-17 05:26:00",10.9,10.0,0.2,0.0,0,1016.9,2,3,"",94
"2015-12-17 05:27:00",10.9,10.0,0.2,0.0,0,1016.9,2,3,"",94
"2015-12-17 05:28:00",10.9,10.0,0.2,0.0,0,1016.9,3,8,"",94
"2015-12-17 05:29:00",10.9,10.0,0.2,0.0,0,1016.9,5,6,"",94
"2015-12-17 05:30:00",10.9,10.0,0.2,0.0,0,1016.9,3,6,"",94
"2015-12-17 05:31:00",10.9,10.0,0.2,0.0,0,1016.9,2,2,"",94
"2015-12-17 05:32:00",10.9,10.0,0.2,0.0,0,1016.8,1,8,"",94
"2015-12-17 05:33:00",10.9,10.0,0.2,0.0,0,1016.9,3,8,"",94
"2015-12-17 05:34:00",10.9,10.0,0.2,0.0,0,1016.9,2,3,"",94
"2015-12-17 05:35:00",10.9,10.0,0.2,0.0,0,1016.8,2,3,"",94
"2015-12-17 05:36:00",10.9,10.0,0.2,0.0,0,1016.9,2,7,"",94
"2015-12-17 05:37:00",10.9,10.0,0.2,0.0,0,1016.8,3,6,"",94
"2015-12-17 05:38:00",11.0,10.0,0.2,0.0,0,1016.8,3,6,"",94
"2015-12-17 05:39:00",11.0,10.0,0.2,0.0,0,1016.8,3,5,"",94
"2015-12-17 05:40:00",11.0,10.0,0.2,0.0,0,1016.8,3,9,"",94
"2015-12-17 05:41:00",11.0,9.9,0.2,0.0,0,1016.8,2,3,"",93
"2015-12-17 05:42:00",11.0,9.9,0.2,0.0,0,1016.8,2,2,"",93
"2015-12-17 05:43:00",11.0,9.9,0.2,0.0,0,1016.8,1,2,"",93
"2015-12-17 05:44:00",11.0,9.9,0.2,0.0,0,1016.7,1,3,"",93
"2015-12-17 05:45:00",11.0,9.9,0.2,0.0,0,1016.8,3,7,"",93
"2015-12-17 05:46:00",11.0,9.9,0.2,0.0,0,1016.7,3,3,"",93
"2015-12-17 05:47:00",11.0,9.9,0.2,0.0,0,1016.7,1,3,"",93
"2015-12-17 05:48:00",11.0,9.9,0.2,0.0,0,1016.7,2,3,"",93
"2015-12-17 05:49:00",11.0,9.9,0.2,0.0,0,1016.7,3,10,"",93
"2015-12-17 05:50:00",11.0,9.9,0.2,0.0,0,1016.7,5,5,"",93
"2015-12-17 05:51:00",11.0,9.9,0.2,0.0,0,1016.8,2,3,"",93
"2015-12-17 05:52:00",11.0,9.9,0.2,0.0,0,1016.7,1,3,"",93
"2015-12-17 05:53:00",11.0,9.9,0.2,0.0,0,1016.8,2,3,"",93
"2015-12-17 05:54:00",11.0,10.0,0.2,0.0,0,1016.8,1,3,"",94
"2015-12-17 05:55:00",11.0,10.0,0.2,0.0,0,1016.8,2,5,"",94
"2015-12-17 05:56:00",11.1,10.0,0.2,0.0,0,1016.8,2,5,"",93
"2015-12-17 05:57:00",11.1,10.0,0.2,0.0,0,1016.7,2,3,"",93
"2015-12-17 05:58:00",11.1,10.0,0.2,0.0,0,1016.7,2,3,"",93
"2015-12-17 05:59:00",11.1,10.0,0.2,0.0,0,1016.7,1,3,"",93
"2015-12-17 06:00:00",11.0,10.0,0.2,0.0,0,1016.7,2,3,"",94
"2015-12-17 06:01:00",11.0,10.0,0.2,0.0,0,1016.7,2,3,"",94
"2015-12-17 06:02:00",11.0,9.9,0.2,0.0,0,1016.7,2,6,"",93
"2015-12-17 06:03:00",11.0,9.9,0.2,0.0,0,1016.7,2,3,"",93
"2015-12-17 06:04:00",11.0,9.9,0.2,0.0,0,1016.7,2,3,"",93
"2015-12-17 06:05:00",11.0,9.9,0.2,0.0,0,1016.7,1,5,"",93
"2015-12-17 06:06:00",11.0,9.9,0.2,0.0,0,1016.7,3,9,"",93
"2015-12-17 06:07:00",11.0,9.8,0.2,0.0,0,1016.7,5,6,"",92
"2015-12-17 06:08:00",11.0,9.8,0.2,0.0,0,1016.7,3,7,"",92
"2015-12-17 06:09:00",11.0,9.8,0.2,0.0,0,1016.7,3,6,"",92
"2015-12-17 06:10:00",11.0,9.8,0.2,0.0,0,1016.7,2,7,"",92
"2015-12-17 06:11:00",11.0,9.8,0.2,0.0,0,1016.7,3,6,"",92
"2015-12-17 06:12:00",11.0,9.8,0.2,0.0,0,1016.6,3,5,"",92
"2015-12-17 06:13:00",11.0,9.8,0.2,0.0,0,1016.6,2,3,"",92
"2015-12-17 06:14:00",11.0,9.8,0.2,0.0,0,1016.7,1,2,"",92
"2015-12-17 06:15:00",11.0,9.8,0.2,0.0,0,1016.7,1,6,"",92
"2015-12-17 06:16:00",11.0,9.8,0.2,0.0,0,1016.7,3,6,"",92
"2015-12-17 06:17:00",11.0,9.8,0.2,0.0,0,1016.7,2,3,"",92
"2015-12-17 06:18:00",11.0,9.8,0.2,0.0,0,1016.7,3,6,"",92
"2015-12-17 06:19:00",11.0,9.7,0.2,0.0,0,1016.7,3,6,"",92
"2015-12-17 06:20:00",11.0,9.7,0.2,0.0,0,1016.7,2,3,"",92
"2015-12-17 06:21:00",11.0,9.7,0.2,0.0,0,1016.7,2,3,"",92
"2015-12-17 06:22:00",11.0,9.7,0.2,0.0,0,1016.8,1,2,"",92
"2015-12-17 06:23:00",11.0,9.7,0.2,0.0,0,1016.8,2,3,"",92
"2015-12-17 06:24:00",11.0,9.7,0.2,0.0,0,1016.8,2,3,"",92
"2015-12-17 06:25:00",11.0,9.7,0.2,0.0,0,1016.8,1,2,"",92
"2015-12-17 06:26:00",11.0,9.7,0.2,0.0,0,1016.8,2,5,"",92
"2015-12-17 06:27:00",11.0,9.7,0.2,0.0,0,1016.8,3,7,"",92
"2015-12-17 06:28:00",11.0,9.7,0.2,0.0,0,1016.8,2,3,"",92
"2015-12-17 06:29:00",11.0,9.7,0.2,0.0,0,1016.8,1,3,"",92
"2015-12-17 06:30:00",10.9,9.7,0.2,0.0,0,1016.8,1,2,"",92
"2015-12-17 06:31:00",10.9,9.7,0.2,0.0,0,1016.8,2,5,"",92
"2015-12-17 06:32:00",10.9,9.7,0.2,0.0,0,1016.8,2,2,"",92
"2015-12-17 06:33:00",10.9,9.7,0.2,0.0,0,1016.8,1,3,"",92
"2015-12-17 06:34:00",10.9,9.7,0.2,0.0,0,1016.8,2,5,"",92
"2015-12-17 06:35:00",10.9,9.7,0.2,0.0,0,1016.7,3,3,"",92
"2015-12-17 06:36:00",10.9,9.7,0.2,0.0,0,1016.7,1,2,"",92
"2015-12-17 06:37:00",10.9,9.7,0.2,0.0,0,1016.7,2,6,"",92
"2015-12-17 06:38:00",10.9,9.7,0.2,0.0,0,1016.6,2,3,"",92
"2015-12-17 06:39:00",10.9,9.7,0.2,0.0,0,1016.6,1,2,"",92
"2015-12-17 06:40:00",10.9,9.6,0.2,0.0,0,1016.7,1,2,"",92
"2015-12-17 06:41:00",10.9,9.6,0.2,0.0,0,1016.6,1,2,"",92
"2015-12-17 06:42:00",10.9,9.6,0.2,0.0,0,1016.6,1,3,"",92
"2015-12-17 06:43:00",10.9,9.6,0.2,0.0,0,1016.6,1,3,"",92
"2015-12-17 06:44:00",10.9,9.6,0.2,0.0,0,1016.6,2,8,"",92